Wind_Speed
30 30 30 31 32 33 35 35 36 37 37 37 37 35 34 31 32 34 34 33 33 33 32 31 30 29 27 26 25 23 22 21 21 20 19 18 18 18 18 19 19 19 18
30 29 29 29 29 29 29 29 29 29 30 30 28 28 29 30 28 30 33 33 33 33 33 34 34 33 32 31 29 28 26 25 23 23 22 22 21 21 20 20 20 20 20
30 29 28 27 27 27 26 26 26 27 28 29 29 30 28 28 28 29 30 30 32 33 32 33 33 34 35 35 32 31 30 29 27 26 25 25 25 24 24 23 22 22 22
30 28 27 26 25 24 25 25 26 27 27 28 28 29 29 29 27 28 28 29 30 30 30 30 30 30 32 36 34 33 31 31 30 29 28 27 27 27 27 27 26 25 24
28 27 26 24 22 22 22 22 23 24 25 26 28 29 30 30 29 29 28 29 29 29 29 29 29 28 28 32 35 34 33 32 32 32 31 30 30 30 30 30 31 29 28
26 24 23 21 20 19 18 18 18 19 21 23 25 27 29 30 31 30 29 28 27 27 26 27 28 27 27 27 31 32 32 33 33 33 33 33 32 32 32 33 33 33 32
24 21 19 17 16 15 15 15 16 17 19 22 24 25 28 29 31 31 31 30 28 26 25 25 26 27 27 28 30 31 31 33 33 33 34 34 34 34 34 34 35 36 36
20 18 17 16 15 15 16 16 16 17 20 22 24 25 26 28 31 32 32 31 29 28 26 25 25 26 28 29 31 31 32 32 32 33 33 34 34 34 34 35 36 37 38
19 18 19 19 19 19 18 18 17 18 19 22 25 27 27 26 29 31 32 32 31 30 28 27 26 25 27 29 31 31 32 32 32 32 33 33 33 33 34 34 35 36 37
21 21 22 22 22 22 21 20 20 20 21 22 26 28 29 29 28 28 30 31 31 30 30 29 28 26 26 27 28 29 30 31 32 32 32 33 33 33 33 33 34 34 36
23 24 25 25 24 24 24 23 23 23 23 24 25 27 28 29 29 28 26 29 30 30 30 30 30 29 26 26 26 27 28 29 30 30 31 32 33 33 33 33 33 34 35
27 27 28 28 28 27 27 26 25 26 26 26 27 27 27 28 29 29 26 26 28 29 30 29 29 30 28 25 24 25 26 27 28 29 30 31 32 32 32 32 33 34 35
32 31 31 31 31 31 29 29 28 28 28 28 28 27 27 27 28 28 26 24 26 27 28 29 28 29 28 26 25 25 24 25 26 28 29 30 31 31 31 30 31 32 33
36 36 35 34 34 34 33 32 31 31 30 29 29 28 26 26 27 27 26 24 24 25 27 28 28 28 28 27 26 25 24 25 27 27 29 29 30 30 30 29 30 30 31
40 40 39 39 39 38 38 36 34 33 32 31 30 29 27 26 27 26 25 24 23 23 26 28 28 28 28 28 26 25 25 26 27 28 28 29 29 29 29 28 28 28 29
47 45 43 43 42 41 41 39 37 35 34 33 31 30 29 27 26 26 25 24 23 22 24 26 28 29 29 28 27 27 27 27 27 28 28 29 29 28 27 26 25 25 26
54 52 49 47 44 43 43 41 39 38 36 35 33 32 30 28 27 26 24 23 22 22 23 25 27 28 28 29 28 28 29 28 28 28 28 28 28 27 27 25 24 23 23
61 57 54 52 50 47 45 44 42 40 39 37 35 33 31 29 28 26 24 23 22 21 21 23 25 27 28 29 29 29 29 29 29 28 27 26 26 25 25 24 23 22 22
64 62 59 56 54 52 50 47 45 42 41 39 37 35 32 29 28 26 24 22 21 20 19 21 24 26 28 29 29 30 30 29 29 28 26 25 24 23 23 22 22 22 23
68 66 64 61 57 54 53 51 49 46 44 42 39 36 33 30 28 26 24 22 20 19 18 20 22 24 26 27 28 29 28 28 27 26 24 23 22 20 20 20 20 21 20
75 72 70 67 64 62 58 56 55 52 49 45 42 37 33 30 28 26 24 21 19 18 18 19 21 23 24 25 25 26 26 25 25 24 22 20 19 19 18 17 17 16 16
81 80 77 75 71 68 65 61 58 55 52 48 43 38 34 31 28 26 23 21 19 18 18 19 21 22 22 23 23 24 24 26 26 24 21 19 18 18 17 15 14 14 13
70 75 78 78 75 72 68 63 59 55 51 48 45 40 36 32 29 26 24 21 19 18 17 18 18 19 20 21 23 23 24 26 25 22 20 17 16 16 14 13 13 13 13
41 49 57 64 68 69 68 66 60 55 51 48 45 42 37 34 31 27 24 21 20 18 18 18 17 18 20 22 24 25 25 25 23 20 18 15 14 14 13 13 13 12 12
34 34 37 43 50 56 61 62 61 57 51 48 43 40 37 35 32 28 25 22 20 19 18 18 18 19 20 22 25 26 25 24 21 18 16 15 14 13 12 12 11 11 10
35 34 32 32 35 42 48 53 55 54 50 48 45 41 38 36 34 31 27 25 22 20 19 19 19 20 21 22 24 24 23 21 18 16 15 14 13 12 11 10 9 9 9
Wind_Direction
289 286 282 281 279 278 276 275 276 279 281 282 280 278 277 280 276 275 270 267 268 268 265 264 262 256 252 251 252 252 253 253 253 253 252 254 257 260 261 261 261 261 260
292 288 286 285 283 284 284 284 286 288 289 290 288 286 285 283 282 278 275 270 268 270 268 265 263 258 251 246 247 250 251 252 253 253 253 253 253 256 259 260 260 260 260
292 290 287 285 284 284 284 288 289 291 292 292 292 292 290 287 284 282 280 276 273 271 272 270 268 263 256 248 244 246 249 251 252 253 254 254 254 254 255 258 259 260 259
292 290 286 284 283 283 284 285 287 289 290 291 292 292 292 291 290 286 283 280 278 278 278 273 269 268 259 250 242 243 246 248 250 252 253 254 255 255 255 255 256 258 258
289 286 283 283 282 282 284 286 289 293 294 296 295 295 293 291 290 287 285 282 280 280 278 273 270 268 263 253 243 242 244 246 249 252 253 254 255 256 255 255 255 255 256
285 281 280 281 280 282 285 289 294 299 303 304 304 302 298 294 289 285 282 279 278 277 275 272 267 264 261 253 247 244 245 247 249 251 253 255 257 257 257 256 255 254 254
280 277 275 275 277 281 286 291 298 305 310 314 314 310 304 297 290 284 279 275 273 272 272 271 268 262 257 251 248 246 247 249 250 251 253 255 257 259 259 258 256 254 253
272 269 271 273 275 278 283 289 299 307 313 318 321 321 314 303 294 287 281 275 270 268 267 267 266 263 257 252 246 246 247 249 251 253 255 257 259 260 261 261 258 255 253
265 267 271 273 274 274 278 283 291 301 309 315 321 323 322 313 302 292 284 276 269 265 265 265 264 263 259 254 248 246 248 250 252 254 256 257 260 261 262 263 260 256 252
263 268 272 275 275 274 276 280 286 295 303 309 316 321 322 318 311 299 288 278 268 262 260 261 262 263 258 256 252 250 250 252 254 257 258 260 261 262 263 263 261 257 254
263 268 272 274 274 274 276 281 287 293 298 303 309 316 320 319 314 307 294 281 270 261 256 257 260 260 258 258 254 254 254 255 256 258 260 261 263 264 263 263 260 258 256
265 267 270 273 273 273 276 280 285 290 294 298 304 310 316 318 316 311 301 285 272 261 254 252 255 258 258 260 256 256 258 259 260 260 261 263 265 266 265 263 260 258 256
271 271 272 273 273 273 275 278 282 286 289 293 299 306 313 317 316 313 305 291 275 264 256 251 252 255 257 260 260 258 258 260 262 262 262 264 266 267 265 263 260 257 256
273 274 275 274 274 273 274 276 278 281 283 286 292 300 308 314 316 314 308 296 281 267 258 252 251 252 254 258 258 258 259 261 262 263 264 265 265 266 264 263 261 258 256
269 271 272 273 273 272 273 274 275 276 277 280 286 293 301 309 315 314 310 302 288 272 260 252 250 252 254 256 258 257 259 261 263 265 265 264 265 265 264 263 263 260 258
266 266 267 268 268 269 270 270 271 272 272 275 280 286 294 302 309 312 310 305 294 278 263 254 250 250 251 253 255 256 259 262 264 266 266 266 264 261 261 262 263 262 260
265 264 263 263 264 266 267 267 267 268 268 270 274 280 288 296 302 307 309 307 299 284 267 257 251 248 248 251 254 256 260 263 265 266 266 265 263 259 261 263 265 265 265
266 264 262 260 260 261 263 263 263 264 264 265 269 275 282 290 296 303 307 307 301 289 271 258 250 247 247 250 253 257 261 263 265 265 264 263 261 259 259 259 264 267 267
265 264 263 261 258 258 259 260 260 260 260 261 264 270 276 283 291 298 304 305 302 292 274 257 250 247 248 250 254 258 261 263 264 261 260 259 257 257 257 259 264 266 268
263 263 262 261 259 257 257 258 258 258 258 257 259 264 270 278 285 293 299 302 299 292 276 259 252 250 250 252 255 258 259 261 259 257 255 254 252 253 256 258 259 261 263
262 262 261 261 260 260 258 257 258 258 257 255 255 259 265 272 280 287 292 296 292 287 276 262 255 253 254 254 255 255 255 254 254 252 248 246 246 250 255 255 254 256 256
261 260 260 260 260 261 260 259 258 257 255 251 250 253 259 267 273 278 284 289 287 280 271 261 255 255 254 251 252 252 253 251 249 245 245 246 246 246 246 246 246 250 253
262 261 260 260 259 259 258 258 256 254 251 247 247 250 255 261 266 271 276 281 281 275 268 259 254 252 251 253 251 249 248 245 241 241 238 234 234 237 236 241 244 247 250
270 264 260 258 257 256 255 254 251 249 248 244 243 245 250 255 260 265 269 272 275 273 264 258 254 252 249 252 247 243 242 241 239 234 228 228 228 230 234 239 244 247 249
277 273 266 260 255 251 249 247 245 244 243 241 240 242 246 251 255 259 262 264 266 266 261 257 253 251 248 249 250 245 241 237 228 223 219 218 222 228 232 235 236 240 246
275 274 271 266 258 248 241 237 238 238 237 238 238 241 244 249 251 254 257 258 259 259 259 256 253 250 251 254 253 246 238 227 219 215 213 214 217 220 224 226 229 236 244
Height
5866 5865 5864 5863 5862 5860 5860 5859 5858 5857 5855 5854 5853 5853 5853 5853 5854 5854 5855 5857 5857 5858 5859 5862 5864 5866 5868 5870 5871 5873 5874 5875 5876 5877 5878 5879 5880 5881 5882 5883 5885 5886 5887
5858 5857 5856 5856 5854 5853 5852 5852 5852 5850 5849 5848 5847 5846 5846 5847 5847 5847 5848 5849 5850 5851 5852 5854 5856 5858 5860 5862 5865 5867 5868 5870 5871 5872 5873 5875 5876 5877 5878 5880 5881 5882 5884
5852 5851 5850 5849 5848 5847 5847 5846 5845 5844 5843 5842 5841 5840 5840 5840 5840 5841 5841 5842 5843 5844 5845 5846 5848 5850 5852 5854 5857 5860 5862 5864 5865 5866 5868 5869 5871 5873 5874 5876 5877 5878 5880
5845 5844 5843 5842 5842 5841 5841 5840 5839 5838 5837 5836 5835 5834 5834 5834 5834 5835 5835 5836 5836 5836 5837 5838 5840 5841 5843 5846 5849 5852 5855 5857 5859 5860 5862 5863 5865 5867 5869 5871 5872 5874 5875
5839 5838 5837 5836 5836 5835 5835 5834 5834 5833 5831 5830 5829 5828 5828 5827 5827 5827 5828 5828 5829 5830 5830 5831 5832 5833 5835 5837 5840 5844 5847 5850 5852 5854 5855 5857 5859 5861 5863 5865 5867 5868 5870
5833 5832 5831 5831 5831 5830 5830 5829 5828 5827 5826 5824 5823 5822 5821 5820 5820 5820 5820 5821 5822 5823 5823 5824 5825 5826 5828 5830 5833 5836 5839 5842 5845 5847 5849 5850 5852 5854 5856 5858 5860 5862 5864
5827 5827 5826 5826 5826 5826 5825 5824 5824 5823 5821 5819 5817 5816 5814 5812 5812 5812 5812 5813 5815 5816 5816 5817 5818 5819 5820 5822 5825 5828 5831 5834 5837 5839 5841 5843 5845 5846 5848 5850 5853 5855 5857
5822 5822 5822 5822 5822 5821 5821 5820 5818 5817 5816 5813 5811 5809 5808 5806 5803 5803 5803 5804 5806 5808 5809 5810 5810 5811 5813 5814 5816 5819 5823 5826 5829 5831 5832 5834 5836 5838 5840 5842 5844 5847 5849
5817 5817 5818 5818 5817 5817 5816 5815 5813 5812 5810 5808 5805 5803 5801 5799 5796 5795 5794 5795 5797 5799 5800 5802 5803 5803 5805 5806 5808 5811 5815 5818 5820 5822 5824 5826 5828 5830 5832 5834 5836 5838 5840
5812 5812 5812 5812 5812 5811 5810 5809 5808 5806 5805 5803 5799 5796 5793 5791 5788 5787 5785 5785 5787 5789 5792 5793 5795 5796 5798 5798 5798 5802 5807 5810 5812 5814 5816 5818 5820 5822 5823 5825 5827 5829 5831
5806 5806 5806 5806 5806 5805 5804 5803 5802 5800 5799 5797 5795 5791 5788 5784 5780 5779 5778 5777 5777 5780 5782 5785 5786 5788 5791 5792 5794 5796 5799 5802 5804 5806 5807 5809 5811 5813 5815 5817 5819 5820 5823
5798 5799 5799 5799 5799 5798 5797 5796 5795 5794 5792 5791 5789 5786 5783 5779 5775 5771 5771 5769 5769 5771 5773 5777 5778 5780 5783 5785 5787 5790 5792 5794 5796 5798 5800 5801 5803 5805 5806 5808 5810 5812 5814
5790 5791 5792 5791 5791 5790 5790 5789 5788 5787 5786 5784 5782 5780 5777 5773 5769 5766 5763 5762 5762 5763 5765 5769 5770 5772 5776 5779 5780 5783 5785 5787 5789 5791 5792 5794 5795 5796 5798 5799 5801 5803 5805
5781 5781 5782 5782 5782 5782 5781 5781 5781 5780 5779 5777 5776 5774 5771 5767 5764 5760 5757 5756 5755 5756 5758 5761 5763 5765 5768 5771 5773 5776 5778 5780 5782 5783 5785 5786 5788 5789 5790 5792 5794 5795 5797
5771 5771 5772 5772 5772 5772 5772 5772 5772 5772 5771 5770 5768 5767 5765 5762 5758 5755 5752 5750 5749 5749 5751 5753 5755 5758 5761 5764 5766 5769 5771 5773 5774 5776 5777 5778 5780 5781 5783 5784 5786 5788 5789
5758 5759 5760 5760 5761 5761 5762 5762 5763 5763 5763 5762 5761 5760 5758 5755 5753 5749 5746 5744 5743 5743 5744 5746 5749 5751 5754 5757 5759 5762 5764 5766 5767 5768 5770 5771 5772 5774 5776 5777 5779 5780 5782
5743 5745 5746 5747 5749 5750 5750 5751 5752 5753 5753 5753 5753 5752 5750 5748 5746 5743 5741 5738 5737 5736 5737 5738 5741 5744 5746 5749 5752 5754 5756 5758 5760 5761 5763 5764 5765 5767 5769 5771 5772 5773 5775
5724 5727 5730 5732 5735 5737 5738 5739 5741 5742 5743 5744 5744 5744 5743 5741 5739 5737 5735 5732 5730 5729 5730 5731 5733 5736 5738 5741 5744 5746 5748 5750 5752 5754 5755 5757 5759 5760 5762 5764 5765 5766 5768
5705 5708 5711 5715 5719 5722 5724 5727 5728 5730 5732 5734 5735 5735 5735 5734 5732 5730 5728 5726 5724 5723 5723 5724 5726 5728 5730 5733 5736 5738 5740 5742 5744 5746 5748 5750 5752 5754 5755 5757 5758 5760 5761
5684 5687 5691 5695 5700 5705 5709 5712 5715 5718 5721 5723 5725 5726 5726 5725 5725 5723 5721 5719 5718 5717 5718 5719 5720 5722 5724 5726 5729 5731 5733 5735 5737 5739 5742 5744 5746 5748 5749 5751 5752 5753 5754
5662 5666 5670 5675 5680 5685 5691 5696 5700 5703 5707 5711 5714 5716 5717 5717 5716 5715 5714 5713 5712 5712 5713 5714 5715 5717 5718 5720 5722 5724 5726 5729 5731 5733 5736 5738 5740 5742 5744 5745 5747 5748 5750
5637 5642 5647 5653 5659 5665 5671 5677 5683 5688 5693 5698 5702 5705 5707 5708 5708 5708 5707 5707 5707 5707 5708 5709 5710 5711 5713 5715 5717 5719 5721 5723 5725 5728 5731 5734 5735 5737 5739 5741 5743 5745 5746
5612 5617 5622 5629 5636 5644 5651 5659 5666 5672 5677 5683 5689 5693 5696 5698 5699 5700 5700 5700 5701 5701 5703 5704 5705 5706 5708 5710 5712 5713 5715 5718 5720 5723 5726 5728 5731 5733 5735 5737 5739 5741 5742
5592 5595 5599 5605 5612 5621 5630 5640 5648 5655 5662 5669 5675 5680 5685 5688 5690 5692 5693 5694 5695 5696 5697 5698 5700 5701 5703 5705 5707 5709 5711 5713 5716 5718 5721 5724 5727 5729 5732 5734 5735 5737 5739
5580 5580 5582 5585 5591 5598 5608 5618 5629 5638 5646 5654 5661 5667 5673 5678 5681 5683 5685 5687 5688 5690 5691 5693 5695 5697 5698 5700 5702 5704 5706 5709 5711 5713 5717 5720 5723 5726 5728 5730 5732 5733 5734
5568 5568 5570 5572 5574 5580 5587 5598 5608 5620 5631 5639 5647 5655 5662 5667 5672 5675 5677 5680 5682 5684 5686 5688 5690 5692 5694 5696 5698 5701 5703 5705 5707 5710 5714 5717 5720 5723 5725 5727 5728 5729 5731